This is the latest recevied weather packets stored in our database for station/object GCEMA. If no packets are shown the sender has not sent any weather packets the latest 10 day(s).
| Time | Temp. | Humidity | Pressure | Rain* | Wind** | Luminosity | Snow |
|---|---|---|---|---|---|---|---|
| 1777909152 | 20° C | - | 1005.9 hPa | 0 mm | 0 m/s | - | - |
| 1777908973 | 20° C | - | 1005.9 hPa | 0 mm | 0 m/s | - | - |
| 1777908795 | 20° C | - | 1005.8 hPa | 0 mm | 0 m/s | - | - |
| 1777908610 | 20° C | - | 1005.9 hPa | 0 mm | 0 m/s | - | - |
| 1777908431 | 20.56° C | - | 1005.8 hPa | 0 mm | 0 m/s | - | - |
| 1777908251 | 20° C | - | 1005.7 hPa | 0 mm | 0 m/s | - | - |
| 1777908072 | 20° C | - | 1005.8 hPa | 0 mm | 0 m/s | - | - |
| 1777907892 | 19.44° C | - | 1005.8 hPa | 0 mm | 0 m/s | - | - |
| 1777907710 | 20.56° C | - | 1005.8 hPa | 0 mm | 0 m/s | - | - |
| 1777907530 | 20.56° C | - | 1005.8 hPa | 0 mm | 0 m/s | - | - |
| 1777907171 | 20° C | - | 1005.9 hPa | 0 mm | 0 m/s | - | - |
| 1777906809 | 20° C | - | 1005.9 hPa | 0 mm | 0 m/s | - | - |
| 1777906630 | 19.44° C | - | 1005.8 hPa | 0 mm | 0 m/s | - | - |
| 1777906450 | 18.89° C | - | 1005.8 hPa | 0 mm | 0 m/s | - | - |
| 1777906270 | 18.33° C | - | 1005.9 hPa | 0 mm | 0 m/s | - | - |
| 1777906091 | 17.78° C | - | 1005.9 hPa | 0 mm | 0 m/s | - | - |
| 1777905909 | 18.89° C | - | 1005.9 hPa | 0 mm | 0 m/s | - | - |
| 1777905731 | 18.33° C | - | 1006 hPa | 0 mm | 0 m/s | - | - |
| 1777905549 | 17.22° C | - | 1006.1 hPa | 0 mm | 0 m/s | - | - |
| 1777905370 | 18.89° C | - | 1006 hPa | 0 mm | 0 m/s | - | - |
| 1777905190 | 18.89° C | - | 1006 hPa | 0 mm | 0 m/s | - | - |
| 1777905008 | 18.89° C | - | 1006.1 hPa | 0 mm | 0 m/s | - | - |
| 1777904828 | 18.33° C | - | 1006.3 hPa | 0 mm | 0 m/s | - | - |
| 1777904649 | 18.89° C | - | 1006.3 hPa | 0 mm | 0 m/s | - | - |
| 1777904290 | 17.78° C | - | 1006.3 hPa | 0 mm | 0 m/s | - | - |
* Rain latest hour (hover to see other rain measurements)
** Current wind speed in m/s (hover to see current wind gust speed)